TimeIST,TemperatureF,Dew PointF,Humidity,Sea Level PressureIn,VisibilityMPH,Wind Direction,Wind SpeedMPH,Gust SpeedMPH,PrecipitationIn,Events,Conditions,WindDirDegrees,DateUTC
12:10 AM,69.8,60.8,73,29.89,2.5,Calm,Calm,-,N/A,,Haze,0,2012-10-28 18:40:00
12:40 AM,68.0,59.0,73,29.89,2.5,Calm,Calm,-,N/A,,Haze,0,2012-10-28 19:10:00
1:10 AM,66.2,55.4,68,29.89,2.5,Calm,Calm,-,N/A,,Haze,0,2012-10-28 19:40:00
1:40 AM,66.2,55.4,68,29.89,2.5,Calm,Calm,-,N/A,,Haze,0,2012-10-28 20:10:00
2:10 AM,66.2,53.6,64,29.89,2.5,Calm,Calm,-,N/A,,Haze,0,2012-10-28 20:40:00
2:30 AM,72,52,39,29.91,1,NW,3.5,,,,Haze,320,2012-10-28 21:00:00
2:40 AM,66.2,53.6,64,29.89,2.5,Calm,Calm,-,N/A,,Haze,0,2012-10-28 21:10:00
3:10 AM,66.2,51.8,60,29.89,2.5,NE,3.5,-,N/A,,Haze,50,2012-10-28 21:40:00
4:10 AM,66.2,51.8,60,29.89,2.5,Calm,Calm,-,N/A,,Haze,0,2012-10-28 22:40:00
4:40 AM,64.4,53.6,68,29.89,2.5,Calm,Calm,-,N/A,,Haze,0,2012-10-28 23:10:00
5:10 AM,62.6,53.6,72,29.89,2.5,Calm,Calm,-,N/A,,Haze,0,2012-10-28 23:40:00
5:30 AM,64,56,68,29.91,1,Calm,Calm,,,,Haze,,2012-10-29 00:00:00
5:40 AM,62.6,53.6,72,29.89,2.5,Calm,Calm,-,N/A,,Haze,0,2012-10-29 00:10:00
6:10 AM,62.6,53.6,72,29.92,2.2,Calm,Calm,-,N/A,,Haze,0,2012-10-29 00:40:00
9:40 AM,82.4,50.0,32,29.95,2.2,ENE,9.2,-,N/A,,Smoke,70,2012-10-29 04:10:00
10:10 AM,86.0,53.6,33,29.95,2.5,ENE,9.2,-,N/A,,Smoke,70,2012-10-29 04:40:00
11:30 AM,90,54,20,29.95,2,East,3.5,,,,,90,2012-10-29 06:00:00
11:40 AM,91.4,55.4,29,29.92,3.1,East,9.2,-,N/A,,Smoke,90,2012-10-29 06:10:00
12:10 PM,93.2,55.4,28,29.89,3.1,East,6.9,-,N/A,,Smoke,80,2012-10-29 06:40:00
12:40 PM,95.0,57.2,28,29.89,3.7,East,8.1,-,N/A,,Unknown,90,2012-10-29 07:10:00
1:10 PM,95.0,53.6,25,29.86,3.7,East,9.2,-,N/A,,Unknown,90,2012-10-29 07:40:00
1:40 PM,95.0,50.0,22,29.86,3.7,East,8.1,-,N/A,,Unknown,80,2012-10-29 08:10:00
2:10 PM,96.8,50.0,20,29.83,3.7,East,9.2,-,N/A,,Unknown,80,2012-10-29 08:40:00
2:30 PM,93,49,14,29.87,2,ESE,3.5,,,,,110,2012-10-29 09:00:00
2:40 PM,96.8,48.2,19,29.83,3.7,East,8.1,-,N/A,,Unknown,80,2012-10-29 09:10:00
3:10 PM,96.8,51.8,22,29.80,3.7,East,9.2,-,N/A,,Unknown,90,2012-10-29 09:40:00
3:40 PM,95.0,50.0,22,29.80,3.7,East,6.9,-,N/A,,Unknown,80,2012-10-29 10:10:00
4:10 PM,95.0,46.4,19,29.80,3.7,ENE,8.1,-,N/A,,Unknown,60,2012-10-29 10:40:00
4:40 PM,93.2,44.6,19,29.80,3.7,ENE,9.2,-,N/A,,Unknown,60,2012-10-29 11:10:00
5:10 PM,91.4,48.2,23,29.80,3.7,ENE,5.8,-,N/A,,Unknown,60,2012-10-29 11:40:00
5:30 PM,90,47,14,29.85,2,NE,3.5,,,,,50,2012-10-29 12:00:00
5:40 PM,91.4,48.2,23,29.80,3.7,ENE,4.6,-,N/A,,Unknown,70,2012-10-29 12:10:00
6:40 PM,82.4,53.6,37,29.83,2.5,Variable,2.3,-,N/A,,Smoke,0,2012-10-29 13:10:00
7:10 PM,78.8,55.4,44,29.83,2.5,Variable,2.3,-,N/A,,Smoke,0,2012-10-29 13:40:00
7:40 PM,77.0,55.4,47,29.86,2.5,Calm,Calm,-,N/A,,Smoke,0,2012-10-29 14:10:00
8:10 PM,77.0,55.4,47,29.86,2.5,Calm,Calm,-,N/A,,Smoke,0,2012-10-29 14:40:00
8:30 PM,72,60,56,29.90,2,Calm,Calm,,,,,,2012-10-29 15:00:00
8:40 PM,77.0,53.6,44,29.86,2.5,Calm,Calm,-,N/A,,Smoke,0,2012-10-29 15:10:00
9:10 PM,75.2,55.4,50,29.89,2.5,Calm,Calm,-,N/A,,Smoke,0,2012-10-29 15:40:00
9:40 PM,73.4,60.8,65,29.89,2.5,Calm,Calm,-,N/A,,Smoke,0,2012-10-29 16:10:00
10:10 PM,71.6,59.0,64,29.89,2.5,Calm,Calm,-,N/A,,Haze,0,2012-10-29 16:40:00
10:40 PM,71.6,60.8,69,29.89,2.5,Calm,Calm,-,N/A,,Haze,0,2012-10-29 17:10:00
11:10 PM,69.8,59.0,68,29.89,2.5,Calm,Calm,-,N/A,,Haze,0,2012-10-29 17:40:00
11:30 PM,67,59,67,29.90,2,Calm,Calm,,,,,,2012-10-29 18:00:00
11:40 PM,69.8,60.8,73,29.86,2.5,Calm,Calm,-,N/A,,Haze,0,2012-10-29 18:10:00